Wind_Speed
36 35 34 34 32 31 30 29 28 28 27 27 26 26 25 24 23 22 21 20 19 18 17 16 15 15 14 14 14 13 13 12 12 12 12 11 11 11 11 11 11 11 11
38 37 37 36 35 34 33 31 30 30 29 29 28 28 27 26 25 24 23 22 22 21 19 19 18 16 16 16 16 15 15 14 14 14 13 13 13 12 12 12 12 12 12
40 39 38 38 37 36 35 34 33 33 32 32 31 30 29 28 27 26 25 25 24 23 22 21 20 19 18 17 17 17 17 16 16 15 15 14 14 14 13 13 13 13 13
42 41 40 39 38 37 36 36 35 34 34 34 33 32 31 31 29 28 27 27 26 25 24 22 22 20 20 19 19 19 19 18 18 17 16 16 16 16 15 15 15 15 15
44 43 42 41 40 38 38 37 36 35 34 34 34 33 33 32 31 30 29 28 27 27 25 24 23 22 21 20 20 20 20 20 20 19 18 18 18 18 17 17 17 17 16
46 45 44 43 42 40 39 38 38 36 35 35 35 34 34 33 33 32 31 30 29 28 27 26 24 24 22 21 21 21 21 21 21 21 20 20 20 19 19 19 18 18 18
47 47 45 45 44 42 40 39 38 38 36 36 35 35 34 33 34 33 32 31 30 29 29 28 26 25 24 23 23 23 23 23 23 22 22 22 22 21 20 20 20 20 19
48 48 46 45 44 43 42 41 40 40 38 38 37 36 35 34 34 34 33 33 32 31 30 30 29 27 26 26 25 25 25 25 25 24 23 23 23 22 22 22 21 21 21
49 49 48 47 46 44 43 42 41 41 41 40 39 38 37 35 34 35 35 34 34 33 32 31 30 29 28 28 27 26 26 26 27 26 26 25 24 24 24 23 23 23 22
50 50 50 49 49 47 45 45 44 43 43 42 41 40 39 38 36 36 37 36 35 35 34 33 32 31 30 30 29 28 28 28 28 28 28 27 26 25 25 25 25 25 24
52 51 52 50 50 49 48 47 45 45 44 43 43 42 42 40 39 38 38 38 38 37 37 36 35 34 32 32 31 30 30 30 30 30 29 29 28 28 28 27 26 26 26
53 52 51 51 50 49 48 48 48 47 45 44 43 43 43 42 41 40 40 40 40 40 39 39 38 37 35 34 34 33 32 32 31 31 31 31 30 30 29 29 28 28 29
53 53 52 50 50 50 48 47 48 47 47 46 44 43 43 42 42 42 42 42 42 42 42 41 40 38 37 36 36 35 35 34 34 33 33 32 32 32 31 31 31 31 31
53 53 52 51 50 50 49 49 48 48 48 48 46 45 44 44 43 43 43 43 43 43 43 42 41 40 39 39 38 38 37 37 36 35 35 35 34 34 34 33 33 32 32
54 53 53 53 52 51 50 49 48 48 49 49 48 47 46 45 45 45 45 44 45 45 44 43 43 42 42 41 40 39 38 38 38 37 37 37 36 36 35 35 34 33 34
53 53 53 54 53 52 52 52 51 49 49 50 49 49 48 47 47 48 48 47 45 46 46 45 45 44 44 43 42 41 40 40 40 39 39 38 37 37 37 37 36 36 36
52 52 53 53 54 53 52 53 52 52 51 50 50 49 50 48 48 48 48 48 47 46 46 45 46 46 46 46 45 44 43 41 41 41 41 40 39 38 38 38 39 38 38
53 54 53 53 54 53 53 53 54 54 53 51 49 49 50 50 48 48 48 48 48 47 46 47 47 46 46 46 46 45 45 44 43 43 43 42 41 41 41 40 40 40 40
52 53 54 54 53 53 53 53 54 54 53 52 51 50 50 51 50 49 48 48 48 48 48 47 47 47 47 46 46 47 46 47 45 45 44 44 43 43 42 42 42 42 42
52 53 54 53 53 53 53 53 53 54 54 54 53 53 52 52 51 51 50 49 49 49 48 48 47 48 48 48 47 47 47 48 47 46 46 46 45 44 44 43 43 43 44
51 51 53 53 53 53 53 53 54 55 54 54 54 53 53 53 52 52 52 52 52 51 51 50 49 49 47 48 49 49 49 48 48 48 48 46 45 45 45 45 45 45 45
51 51 52 52 53 53 53 53 54 55 55 55 54 54 54 53 53 54 54 54 54 53 53 52 51 50 48 48 49 50 51 50 50 49 49 47 46 46 46 46 46 46 47
51 52 52 52 52 52 53 54 55 55 55 55 54 54 54 54 53 54 54 54 54 54 53 52 52 51 51 51 51 51 52 52 52 51 51 50 49 47 46 47 48 48 48
49 51 51 51 51 51 52 53 54 55 54 54 54 54 54 54 54 55 56 56 55 55 55 54 54 53 53 53 53 53 53 53 53 52 52 52 51 50 49 49 49 50 50
47 49 50 51 50 51 52 52 53 55 55 55 55 55 55 55 56 57 58 57 57 56 56 57 56 56 56 55 54 54 54 54 54 53 53 52 52 52 51 51 51 52 52
45 46 47 49 49 50 51 50 51 53 54 55 56 57 57 57 57 58 59 58 58 57 58 58 59 59 58 57 56 55 55 55 55 55 55 54 53 53 53 52 52 53 53
Wind_Direction
241 243 244 243 243 243 243 243 244 244 246 246 246 246 245 245 247 248 249 250 251 251 253 255 257 258 259 259 263 264 269 274 277 278 280 286 291 294 297 302 306 309 312
241 242 243 244 244 245 245 245 244 245 245 246 246 247 246 244 244 246 247 249 250 251 253 254 256 257 258 259 261 263 266 270 273 275 278 283 290 292 293 295 301 305 307
241 242 243 245 245 246 247 247 246 246 246 246 247 247 247 245 245 245 247 248 249 250 252 253 254 256 257 258 259 261 263 266 270 273 274 278 283 286 289 292 295 299 302
241 241 242 243 244 246 246 247 248 247 247 247 247 247 246 245 244 245 246 246 247 249 250 252 253 255 256 258 258 260 261 264 266 270 272 274 277 280 283 286 291 295 298
241 241 241 242 243 244 245 246 247 248 247 246 246 246 245 245 244 244 246 246 246 246 248 250 251 253 255 257 257 258 260 262 264 267 269 272 274 276 279 283 286 291 293
240 240 240 241 242 243 245 245 246 246 246 245 244 244 245 245 245 244 245 246 246 246 246 248 249 251 253 256 257 258 260 261 263 265 268 271 274 276 277 279 283 287 290
240 240 239 239 241 242 244 243 243 243 244 244 244 243 243 244 244 244 244 244 245 245 245 247 249 251 253 256 258 258 259 260 262 264 267 270 273 275 276 277 280 283 286
240 240 239 239 240 241 242 243 242 241 242 243 243 244 244 244 245 244 244 245 245 246 246 246 249 251 253 255 257 259 260 260 262 264 265 268 271 273 275 276 278 281 284
241 240 239 239 239 240 241 243 241 240 242 243 243 244 245 245 246 245 244 244 245 245 246 246 248 250 253 255 256 258 258 259 260 262 264 267 270 272 275 276 278 280 282
242 241 240 240 240 241 241 242 241 241 241 242 243 244 245 246 247 246 245 245 244 245 245 246 248 250 253 255 257 257 258 259 260 262 264 266 268 271 275 277 278 278 281
241 241 241 240 240 240 241 241 241 241 241 242 243 244 245 245 246 247 246 245 244 244 245 246 247 250 252 254 256 257 258 258 259 261 263 265 267 269 272 275 278 279 280
242 241 240 240 240 240 240 240 241 241 241 241 242 244 245 245 246 247 247 246 245 244 245 246 248 249 251 253 255 256 258 259 260 262 263 264 266 268 271 273 276 279 280
243 242 241 241 241 239 240 240 240 241 242 241 242 243 243 244 245 246 246 247 247 245 245 246 247 249 251 252 255 256 258 259 261 262 263 264 266 268 270 272 275 277 279
243 242 240 240 241 240 240 241 242 243 243 241 241 242 243 243 244 245 246 247 246 246 245 245 246 248 250 252 255 257 258 260 262 263 263 264 266 268 270 271 273 275 277
242 242 241 241 241 242 242 242 242 243 244 243 242 243 244 244 244 245 246 248 248 247 246 246 246 248 251 253 255 256 257 259 261 262 263 264 266 268 269 271 273 274 275
242 241 241 242 242 242 243 243 242 243 244 244 244 244 245 246 246 246 247 248 249 248 247 247 248 249 251 253 254 256 257 258 260 260 262 263 265 267 268 270 272 274 275
243 242 241 242 242 242 243 243 243 244 245 246 245 245 245 246 246 246 247 248 248 248 248 248 249 250 251 253 254 255 256 257 257 259 261 262 263 266 267 269 272 273 274
243 242 242 242 242 243 244 245 245 245 246 244 244 245 245 245 246 246 246 247 248 249 249 249 250 251 251 253 254 255 257 257 257 258 259 261 263 265 267 268 270 271 272
243 243 243 243 243 244 245 246 246 246 245 244 244 245 246 245 245 247 247 246 247 249 250 250 251 251 252 253 254 256 257 257 257 258 259 261 263 265 266 268 269 271 271
243 243 243 242 243 245 245 246 245 245 245 244 244 245 246 246 246 246 247 247 247 249 250 251 252 252 253 254 255 256 257 257 258 258 260 261 263 264 265 266 268 270 271
242 243 243 243 244 245 245 246 246 245 245 245 245 245 246 246 247 246 246 247 249 250 252 252 253 252 253 254 254 256 256 257 258 258 259 261 262 263 265 266 268 269 270
244 244 242 243 244 244 245 245 245 245 245 245 245 245 245 246 246 246 247 247 249 251 253 253 253 252 252 252 254 255 256 257 257 258 259 260 262 264 264 266 267 268 269
245 245 245 245 244 244 244 245 244 246 245 245 245 245 245 245 245 246 247 247 250 251 252 253 252 252 252 252 253 255 256 257 257 259 259 261 262 263 264 266 268 269 269
246 246 246 245 244 243 244 244 245 246 247 246 245 246 246 245 246 246 247 249 251 252 253 253 252 252 252 253 254 255 256 257 258 259 260 260 262 263 264 266 268 269 269
247 247 247 245 244 244 244 244 245 246 246 246 246 246 245 246 247 247 249 250 252 253 254 253 252 252 253 254 254 255 256 257 258 259 261 261 262 263 264 266 267 269 269
249 248 247 246 246 245 245 246 247 246 247 247 247 246 246 247 248 249 250 251 252 254 254 253 253 253 254 254 255 256 257 257 258 259 260 261 262 263 265 266 268 269 270
Height
5785 5788 5791 5794 5797 5800 5803 5806 5809 5811 5813 5815 5817 5820 5822 5824 5826 5828 5830 5831 5832 5834 5835 5836 5837 5838 5838 5839 5840 5840 5841 5841 5841 5841 5841 5841 5841 5840 5840 5839 5839 5838 5837
5776 5779 5783 5786 5789 5792 5795 5798 5801 5804 5806 5809 5811 5813 5815 5818 5820 5822 5824 5826 5828 5829 5831 5832 5833 5834 5835 5835 5836 5837 5837 5838 5838 5838 5838 5838 5838 5838 5837 5837 5836 5835 5835
5766 5770 5774 5777 5781 5784 5787 5790 5793 5796 5799 5801 5804 5806 5809 5811 5814 5816 5818 5820 5822 5824 5826 5827 5828 5829 5831 5831 5832 5833 5834 5834 5834 5835 5835 5835 5835 5834 5834 5834 5833 5832 5832
5756 5760 5764 5768 5771 5774 5777 5780 5784 5787 5790 5792 5795 5798 5801 5804 5807 5809 5812 5814 5816 5818 5820 5822 5823 5825 5826 5827 5828 5829 5829 5830 5830 5831 5831 5831 5831 5831 5830 5830 5830 5829 5828
5745 5749 5753 5758 5761 5765 5768 5771 5775 5778 5781 5783 5786 5790 5793 5796 5799 5802 5805 5807 5810 5812 5814 5816 5818 5819 5821 5822 5823 5824 5825 5825 5826 5826 5827 5827 5827 5827 5826 5826 5826 5825 5824
5734 5738 5743 5747 5751 5755 5759 5762 5765 5768 5771 5774 5777 5781 5784 5787 5790 5794 5797 5800 5803 5805 5808 5810 5812 5814 5815 5816 5817 5819 5820 5820 5821 5822 5822 5822 5822 5822 5822 5822 5821 5821 5820
5723 5727 5732 5737 5741 5745 5749 5753 5756 5759 5762 5765 5769 5772 5775 5778 5782 5785 5789 5792 5795 5798 5801 5803 5805 5807 5809 5811 5812 5813 5814 5815 5815 5816 5817 5817 5817 5817 5817 5817 5816 5816 5816
5712 5716 5721 5726 5731 5735 5739 5743 5746 5750 5753 5756 5760 5763 5767 5771 5773 5777 5780 5784 5787 5790 5793 5796 5798 5800 5802 5804 5806 5807 5808 5809 5809 5810 5811 5811 5812 5812 5811 5811 5811 5811 5810
5701 5705 5710 5715 5719 5724 5729 5732 5736 5740 5744 5747 5750 5754 5758 5762 5765 5769 5772 5775 5779 5782 5786 5788 5791 5793 5795 5797 5799 5800 5801 5802 5803 5804 5805 5805 5806 5806 5806 5806 5805 5805 5804
5690 5694 5699 5703 5708 5713 5718 5721 5725 5729 5733 5737 5740 5745 5749 5753 5757 5761 5764 5767 5770 5774 5777 5780 5783 5785 5787 5789 5791 5793 5794 5795 5796 5797 5798 5799 5799 5799 5799 5799 5799 5799 5798
5678 5682 5687 5692 5697 5702 5706 5710 5715 5718 5722 5727 5731 5735 5739 5743 5747 5751 5755 5758 5761 5764 5768 5771 5774 5777 5779 5781 5783 5785 5786 5787 5789 5790 5791 5791 5792 5792 5792 5793 5792 5792 5792
5666 5671 5675 5680 5685 5690 5695 5699 5704 5708 5712 5716 5720 5724 5728 5733 5737 5741 5745 5748 5751 5755 5758 5762 5765 5768 5770 5773 5775 5777 5778 5779 5780 5782 5783 5783 5784 5785 5785 5785 5785 5785 5785
5654 5659 5663 5668 5673 5678 5683 5687 5692 5696 5701 5705 5709 5713 5718 5722 5726 5730 5734 5737 5741 5745 5748 5752 5755 5758 5761 5763 5765 5767 5769 5771 5772 5773 5774 5775 5776 5777 5777 5777 5777 5777 5777
5642 5646 5651 5656 5661 5666 5671 5676 5681 5685 5689 5694 5698 5703 5707 5711 5715 5719 5723 5726 5730 5734 5737 5741 5745 5748 5751 5753 5756 5758 5760 5762 5763 5764 5765 5766 5767 5768 5768 5769 5769 5769 5768
5629 5634 5638 5644 5649 5654 5659 5664 5668 5673 5677 5682 5687 5691 5695 5699 5703 5707 5711 5715 5719 5723 5727 5731 5734 5737 5740 5743 5745 5747 5750 5751 5753 5754 5756 5757 5758 5759 5759 5759 5760 5760 5760
5616 5621 5626 5631 5637 5642 5647 5651 5656 5661 5665 5670 5674 5678 5683 5687 5691 5695 5699 5703 5707 5711 5716 5720 5723 5726 5729 5732 5735 5737 5739 5741 5742 5744 5745 5747 5748 5749 5749 5750 5750 5750 5750
5603 5608 5614 5619 5624 5629 5634 5639 5643 5649 5653 5658 5662 5666 5670 5675 5679 5683 5687 5691 5695 5699 5704 5708 5711 5715 5718 5721 5723 5726 5728 5729 5731 5733 5735 5736 5738 5738 5739 5740 5740 5740 5740
5591 5596 5601 5606 5612 5617 5622 5626 5631 5635 5641 5645 5649 5653 5658 5662 5666 5671 5675 5679 5683 5687 5692 5696 5700 5703 5706 5709 5712 5714 5717 5718 5720 5722 5724 5725 5727 5728 5729 5729 5730 5730 5730
5578 5583 5588 5593 5599 5604 5609 5613 5617 5622 5627 5632 5636 5641 5645 5650 5654 5658 5663 5667 5671 5675 5679 5683 5687 5690 5694 5697 5700 5702 5704 5706 5709 5711 5712 5714 5716 5717 5718 5718 5719 5719 5719
5565 5570 5575 5580 5586 5590 5595 5600 5604 5609 5614 5619 5623 5628 5632 5637 5642 5646 5650 5655 5658 5662 5666 5670 5674 5678 5681 5684 5687 5690 5692 5694 5697 5698 5700 5702 5704 5705 5706 5707 5708 5708 5708
5553 5557 5562 5567 5572 5577 5582 5586 5591 5596 5601 5605 5610 5614 5619 5624 5629 5633 5638 5642 5645 5649 5653 5657 5661 5665 5668 5671 5674 5677 5679 5682 5684 5686 5688 5691 5692 5694 5694 5695 5695 5696 5696
5540 5544 5549 5554 5559 5563 5568 5572 5578 5582 5587 5592 5597 5601 5606 5611 5615 5620 5624 5628 5632 5636 5640 5644 5648 5652 5655 5658 5661 5663 5666 5669 5672 5675 5675 5678 5679 5681 5682 5683 5683 5683 5683
5527 5531 5536 5541 5545 5550 5554 5559 5564 5568 5573 5578 5583 5588 5592 5597 5602 5606 5610 5614 5618 5622 5626 5630 5634 5637 5641 5645 5647 5651 5652 5655 5658 5660 5662 5665 5667 5669 5670 5670 5671 5671 5670
5514 5519 5523 5527 5532 5537 5541 5546 5550 5555 5560 5565 5570 5574 5579 5583 5587 5592 5596 5601 5604 5609 5613 5617 5621 5624 5626 5629 5633 5636 5639 5642 5645 5646 5648 5651 5653 5655 5656 5657 5657 5657 5657
5502 5506 5510 5514 5519 5524 5528 5532 5536 5541 5546 5551 5556 5560 5565 5569 5573 5578 5583 5587 5591 5594 5597 5601 5605 5608 5611 5615 5618 5621 5624 5627 5630 5633 5634 5637 5640 5641 5643 5643 5644 5644 5643
5489 5493 5497 5501 5505 5510 5514 5518 5522 5528 5533 5537 5541 5546 5551 5555 5558 5562 5567 5571 5576 5579 5582 5585 5589 5593 5596 5600 5602 5605 5608 5611 5615 5618 5620 5622 5624 5626 5628 5630 5630 5629 5629